Regional Weather Roundup
Issued by NWS

Home | Current Version | Previous Version | Graphics & Text | Print | Product List | Glossary On
Versions: 1 2 3 4 5 6 7 8 9 10 11 12 13 14 15 16 17 18 19 20 21 22 23 24 25 26 27
000
ASUS45 KCYS 260510
RWRWY

WYOMING REGIONAL WEATHER ROUNDUP
NATIONAL WEATHER SERVICE CHEYENNE WY
1100 PM MDT MON JUL 25 2016

NOTE:  "FAIR" INDICATES FEW OR NO CLOUDS BELOW 12,000 FEET
WITH NO SIGNIFICANT WEATHER AND/OR OBSTRUCTIONS TO VISIBILITY.

WYZ001-260600-
YELLOWSTONE NATIONAL PARK

CITY           SKY/WX    TMP DP  RH WIND       PRES   REMARKS
LK YELLOWSTONE   N/A     53  32  44 CALM      30.36S
W YELLOWSTONE  NOT AVBL

$$
WYZ002>013-054>058-071-098>099-260600-
NORTHERN WYOMING

CITY           SKY/WX    TMP DP  RH WIND       PRES   REMARKS
JACKSON        FAIR      55  34  44 NE6       30.23R
CODY           FAIR      73  37  27 N9G16     30.13R
GREYBULL       FAIR      81  32  17 SE3       29.96S
WORLAND        FAIR      76  28  17 SW8       29.99R
SHERIDAN       FAIR      69  46  43 CALM      30.01R
BUFFALO        FAIR      75  35  23 W9        30.10R
GILLETTE       FAIR      76  49  38 SE12      30.04R
HULETT         FAIR      77  45  31 CALM      30.07S
NEWCASTLE      FAIR      79  48  34 SE10G18   30.08R

$$
WYZ014>020-022>026-101>103-260600-
CENTRAL WYOMING

CITY           SKY/WX    TMP DP  RH WIND       PRES   REMARKS
BIG PINEY      FAIR      67  26  21 W3        30.29R
PINEDALE       FAIR      64  27  24 SW8       30.29S
DUBOIS         MOCLDY    64  21  19 CALM      30.29S
LANDER         FAIR      80  28  15 N3        30.11F
RIVERTON       FAIR      81  27  14 S9        30.12S
CASPER         FAIR      75  44  33 E6        30.09S
DOUGLAS          N/A    N/A N/A N/A MISG      30.08S

$$
WYZ021-027>030-104>119-260600-
SOUTHERN WYOMING

CITY           SKY/WX    TMP DP  RH WIND       PRES   REMARKS
EVANSTON       FAIR      67  32  27 S9        30.29R
KEMMERER         N/A    N/A N/A N/A NW5       30.30S
FORT BRIDGER   FAIR      68  31  25 S10       30.30S
ROCK SPRINGS   FAIR      70  30  22 S8        30.25S
DIXON          FAIR      65  38  36 NE7       30.29R
RAWLINS        FAIR      69  26  20 S6        30.26R
SARATOGA       FAIR      70  34  26 E3        30.29R
LARAMIE        FAIR      62  47  57 S10       30.29R
CHEYENNE       FAIR      68  59  73 SE14      30.22R
TORRINGTON     FAIR      76  62  62 SE13      30.08R
PINE BLUFFS    FAIR      68  61  77 SE18G28   30.18R

$$




USA.gov is the U.S. government's official web portal to all federal, state and local government web resources and services.